Year,Month,Day,Hour,Minute,Value (Times are PST for insolation in W/m^2)
2016,02,28,00,00,0.00
2016,02,28,00,01,0.00
2016,02,28,00,02,0.00
2016,02,28,00,03,0.00
2016,02,28,00,04,0.00
2016,02,28,00,05,0.00
2016,02,28,00,06,0.00
2016,02,28,00,07,0.00
2016,02,28,00,08,0.00
2016,02,28,00,09,0.00
2016,02,28,00,10,0.00
2016,02,28,00,11,0.00
2016,02,28,00,12,0.00
2016,02,28,00,13,0.00
2016,02,28,00,14,0.00
2016,02,28,00,15,0.00
2016,02,28,00,16,0.00
2016,02,28,00,17,0.00
2016,02,28,00,18,0.00
2016,02,28,00,19,0.00
2016,02,28,00,20,0.00
2016,02,28,00,21,0.00
2016,02,28,00,22,0.00
2016,02,28,00,23,0.00
2016,02,28,00,24,0.00
2016,02,28,00,25,0.00
2016,02,28,00,26,0.00
2016,02,28,00,27,0.00
2016,02,28,00,28,0.00
2016,02,28,00,29,0.00
2016,02,28,00,30,0.00
2016,02,28,00,31,0.00
2016,02,28,00,32,0.00
2016,02,28,00,33,0.00
2016,02,28,00,34,0.00
2016,02,28,00,35,0.00
2016,02,28,00,36,0.00
2016,02,28,00,37,0.00
2016,02,28,00,38,0.00
2016,02,28,00,39,0.00
2016,02,28,00,40,0.00
2016,02,28,00,41,0.00
2016,02,28,00,42,0.00
2016,02,28,00,43,0.00
2016,02,28,00,44,0.00
2016,02,28,00,45,0.00
2016,02,28,00,46,0.00
2016,02,28,00,47,0.00
2016,02,28,00,48,0.00
2016,02,28,00,49,0.00
2016,02,28,00,50,0.00
2016,02,28,00,51,0.00
2016,02,28,00,52,0.00
2016,02,28,00,53,0.00
2016,02,28,00,54,0.00
2016,02,28,00,55,0.00
2016,02,28,00,56,0.00
2016,02,28,00,57,0.00
2016,02,28,00,58,0.00
2016,02,28,00,59,0.00
2016,02,28,01,00,0.00
2016,02,28,01,01,0.00
2016,02,28,01,02,0.00
2016,02,28,01,03,0.00
2016,02,28,01,04,0.00
2016,02,28,01,05,0.00
2016,02,28,01,06,0.00
2016,02,28,01,07,0.00
2016,02,28,01,08,0.00
2016,02,28,01,09,0.00
2016,02,28,01,10,0.00
2016,02,28,01,11,0.00
2016,02,28,01,12,0.00
2016,02,28,01,13,0.00
2016,02,28,01,14,0.00
2016,02,28,01,15,0.00
2016,02,28,01,16,0.00
2016,02,28,01,17,0.00
2016,02,28,01,18,0.00
2016,02,28,01,19,0.00
2016,02,28,01,20,0.00
2016,02,28,01,21,0.00
2016,02,28,01,22,0.00
2016,02,28,01,23,0.00
2016,02,28,01,24,0.00
2016,02,28,01,25,0.00
2016,02,28,01,26,0.00
2016,02,28,01,27,0.00
2016,02,28,01,28,0.00
2016,02,28,01,29,0.00
2016,02,28,01,30,0.00
2016,02,28,01,31,0.00
2016,02,28,01,32,0.00
2016,02,28,01,33,0.00
2016,02,28,01,34,0.00
2016,02,28,01,35,0.00
2016,02,28,01,36,0.00
2016,02,28,01,37,0.00
2016,02,28,01,38,0.00
2016,02,28,01,39,0.00
2016,02,28,01,40,0.00
2016,02,28,01,41,0.00
2016,02,28,01,42,0.00
2016,02,28,01,43,0.00
2016,02,28,01,44,0.00
2016,02,28,01,45,0.00
2016,02,28,01,46,0.00
2016,02,28,01,47,0.00
2016,02,28,01,48,0.00
2016,02,28,01,49,0.00
2016,02,28,01,50,0.00
2016,02,28,01,51,0.00
2016,02,28,01,52,0.00
2016,02,28,01,53,0.00
2016,02,28,01,54,0.00
2016,02,28,01,55,0.00
2016,02,28,01,56,0.00
2016,02,28,01,57,0.00
2016,02,28,01,58,0.00
2016,02,28,01,59,0.00
2016,02,28,02,00,0.00
2016,02,28,02,01,0.00
2016,02,28,02,02,0.00
2016,02,28,02,03,0.00
2016,02,28,02,04,0.00
2016,02,28,02,05,0.00
2016,02,28,02,06,0.00
2016,02,28,02,07,0.00
2016,02,28,02,08,0.00
2016,02,28,02,09,0.00
2016,02,28,02,10,0.00
2016,02,28,02,11,0.00
2016,02,28,02,12,0.00
2016,02,28,02,13,0.00
2016,02,28,02,14,0.00
2016,02,28,02,15,0.00
2016,02,28,02,16,0.00
2016,02,28,02,17,0.00
2016,02,28,02,18,0.00
2016,02,28,02,19,0.00
2016,02,28,02,20,0.00
2016,02,28,02,21,0.00
2016,02,28,02,22,0.00
2016,02,28,02,23,0.00
2016,02,28,02,24,0.00
2016,02,28,02,25,0.00
2016,02,28,02,26,0.00
2016,02,28,02,27,0.00
2016,02,28,02,28,0.00
2016,02,28,02,29,0.00
2016,02,28,02,30,0.00
2016,02,28,02,31,0.00
2016,02,28,02,32,0.00
2016,02,28,02,33,0.00
2016,02,28,02,34,0.00
2016,02,28,02,35,0.00
2016,02,28,02,36,0.00
2016,02,28,02,37,0.00
2016,02,28,02,38,0.00
2016,02,28,02,39,0.00
2016,02,28,02,40,0.00
2016,02,28,02,41,0.00
2016,02,28,02,42,0.00
2016,02,28,02,43,0.00
2016,02,28,02,44,0.00
2016,02,28,02,45,0.00
2016,02,28,02,46,0.00
2016,02,28,02,47,0.00
2016,02,28,02,48,0.00
2016,02,28,02,49,0.00
2016,02,28,02,50,0.00
2016,02,28,02,51,0.00
2016,02,28,02,52,0.00
2016,02,28,02,53,0.00
2016,02,28,02,54,0.00
2016,02,28,02,55,0.00
2016,02,28,02,56,0.00
2016,02,28,02,57,0.00
2016,02,28,02,58,0.00
2016,02,28,02,59,0.00
2016,02,28,03,00,0.00
2016,02,28,03,01,0.00
2016,02,28,03,02,0.00
2016,02,28,03,03,0.00
2016,02,28,03,04,0.00
2016,02,28,03,05,0.00
2016,02,28,03,06,0.00
2016,02,28,03,07,0.00
2016,02,28,03,08,0.00
2016,02,28,03,09,0.00
2016,02,28,03,10,0.00
2016,02,28,03,11,0.00
2016,02,28,03,12,0.00
2016,02,28,03,13,0.00
2016,02,28,03,14,0.00
2016,02,28,03,15,0.00
2016,02,28,03,16,0.00
2016,02,28,03,17,0.00
2016,02,28,03,18,0.00
2016,02,28,03,19,0.00
2016,02,28,03,20,0.00
2016,02,28,03,21,0.00
2016,02,28,03,22,0.00
2016,02,28,03,23,0.00
2016,02,28,03,24,0.00
2016,02,28,03,25,0.00
2016,02,28,03,26,0.00
2016,02,28,03,27,0.00
2016,02,28,03,28,0.00
2016,02,28,03,29,0.00
2016,02,28,03,30,0.00
2016,02,28,03,31,0.00
2016,02,28,03,32,0.00
2016,02,28,03,33,0.00
2016,02,28,03,34,0.00
2016,02,28,03,35,0.00
2016,02,28,03,36,0.00
2016,02,28,03,37,0.00
2016,02,28,03,38,0.00
2016,02,28,03,39,0.00
2016,02,28,03,40,0.00
2016,02,28,03,41,0.00
2016,02,28,03,42,0.00
2016,02,28,03,43,0.00
2016,02,28,03,44,0.00
2016,02,28,03,45,0.00
2016,02,28,03,46,0.00
2016,02,28,03,47,0.00
2016,02,28,03,48,0.00
2016,02,28,03,49,0.00
2016,02,28,03,50,0.00
2016,02,28,03,51,0.00
2016,02,28,03,52,0.00
2016,02,28,03,53,0.00
2016,02,28,03,54,0.00
2016,02,28,03,55,0.00
2016,02,28,03,56,0.00
2016,02,28,03,57,0.00
2016,02,28,03,58,0.00
2016,02,28,03,59,0.00
2016,02,28,04,00,0.00
2016,02,28,04,01,0.00
2016,02,28,04,02,0.00
2016,02,28,04,03,0.00
2016,02,28,04,04,0.00
2016,02,28,04,05,0.00
2016,02,28,04,06,0.00
2016,02,28,04,07,0.00
2016,02,28,04,08,0.00
2016,02,28,04,09,0.00
2016,02,28,04,10,0.00
2016,02,28,04,11,0.00
2016,02,28,04,12,0.00
2016,02,28,04,13,0.00
2016,02,28,04,14,0.00
2016,02,28,04,15,0.00
2016,02,28,04,16,0.00
2016,02,28,04,17,0.00
2016,02,28,04,18,0.00
2016,02,28,04,19,0.00
2016,02,28,04,20,0.00
2016,02,28,04,21,0.00
2016,02,28,04,22,0.00
2016,02,28,04,23,0.00
2016,02,28,04,24,0.00
2016,02,28,04,25,0.00
2016,02,28,04,26,0.00
2016,02,28,04,27,0.00
2016,02,28,04,28,0.00
2016,02,28,04,29,0.00
2016,02,28,04,30,0.00
2016,02,28,04,31,0.00
2016,02,28,04,32,0.00
2016,02,28,04,33,0.00
2016,02,28,04,34,0.00
2016,02,28,04,35,0.00
2016,02,28,04,36,0.00
2016,02,28,04,37,0.00
2016,02,28,04,38,0.00
2016,02,28,04,39,0.00
2016,02,28,04,40,0.00
2016,02,28,04,41,0.00
2016,02,28,04,42,0.00
2016,02,28,04,43,0.00
2016,02,28,04,44,0.00
2016,02,28,04,45,0.00
2016,02,28,04,46,0.00
2016,02,28,04,47,0.00
2016,02,28,04,48,0.00
2016,02,28,04,49,0.00
2016,02,28,04,50,0.00
2016,02,28,04,51,0.00
2016,02,28,04,52,0.00
2016,02,28,04,53,0.00
2016,02,28,04,54,0.00
2016,02,28,04,55,0.00
2016,02,28,04,56,0.00
2016,02,28,04,57,0.00
2016,02,28,04,58,0.00
2016,02,28,04,59,0.00
2016,02,28,05,00,0.00
2016,02,28,05,01,0.00
2016,02,28,05,02,0.00
2016,02,28,05,03,0.00
2016,02,28,05,04,0.00
2016,02,28,05,05,0.00
2016,02,28,05,06,0.00
2016,02,28,05,07,0.00
2016,02,28,05,08,0.00
2016,02,28,05,09,0.00
2016,02,28,05,10,0.00
2016,02,28,05,11,0.00
2016,02,28,05,12,0.00
2016,02,28,05,13,0.00
2016,02,28,05,14,0.00
2016,02,28,05,15,0.00
2016,02,28,05,16,0.00
2016,02,28,05,17,0.00
2016,02,28,05,18,0.00
2016,02,28,05,19,0.00
2016,02,28,05,20,0.00
2016,02,28,05,21,0.00
2016,02,28,05,22,0.00
2016,02,28,05,23,0.00
2016,02,28,05,24,0.00
2016,02,28,05,25,0.00
2016,02,28,05,26,0.00
2016,02,28,05,27,0.00
2016,02,28,05,28,0.00
2016,02,28,05,29,0.00
2016,02,28,05,30,0.00
2016,02,28,05,31,0.00
2016,02,28,05,32,0.00
2016,02,28,05,33,0.00
2016,02,28,05,34,0.00
2016,02,28,05,35,0.00
2016,02,28,05,36,0.00
2016,02,28,05,37,0.00
2016,02,28,05,38,0.00
2016,02,28,05,39,0.00
2016,02,28,05,40,0.00
2016,02,28,05,41,0.00
2016,02,28,05,42,0.00
2016,02,28,05,43,0.00
2016,02,28,05,44,0.00
2016,02,28,05,45,0.00
2016,02,28,05,46,0.00
2016,02,28,05,47,0.00
2016,02,28,05,48,0.00
2016,02,28,05,49,0.00
2016,02,28,05,50,0.00
2016,02,28,05,51,0.00
2016,02,28,05,52,0.00
2016,02,28,05,53,0.00
2016,02,28,05,54,0.00
2016,02,28,05,55,0.00
2016,02,28,05,56,0.00
2016,02,28,05,57,0.00
2016,02,28,05,58,0.00
2016,02,28,05,59,0.00
2016,02,28,06,00,0.00
2016,02,28,06,01,0.00
2016,02,28,06,02,0.00
2016,02,28,06,03,0.00
2016,02,28,06,04,0.00
2016,02,28,06,05,0.00
2016,02,28,06,06,0.00
2016,02,28,06,07,0.00
2016,02,28,06,08,0.00
2016,02,28,06,09,0.00
2016,02,28,06,10,0.00
2016,02,28,06,11,0.00
2016,02,28,06,12,0.00
2016,02,28,06,13,0.00
2016,02,28,06,14,0.00
2016,02,28,06,15,0.00
2016,02,28,06,16,0.00
2016,02,28,06,17,0.00
2016,02,28,06,18,0.00
2016,02,28,06,19,0.00
2016,02,28,06,20,0.00
2016,02,28,06,21,0.00
2016,02,28,06,22,0.00
2016,02,28,06,23,0.00
2016,02,28,06,24,0.00
2016,02,28,06,25,0.00
2016,02,28,06,26,0.00
2016,02,28,06,27,0.00
2016,02,28,06,28,0.00
2016,02,28,06,29,0.00
2016,02,28,06,30,0.00
2016,02,28,06,31,0.00
2016,02,28,06,32,0.00
2016,02,28,06,33,0.00
2016,02,28,06,34,0.00
2016,02,28,06,35,0.00
2016,02,28,06,36,0.00
2016,02,28,06,37,0.00
2016,02,28,06,38,0.00
2016,02,28,06,39,0.00
2016,02,28,06,40,0.00
2016,02,28,06,41,0.00
2016,02,28,06,42,0.00
2016,02,28,06,43,0.00
2016,02,28,06,44,0.00
2016,02,28,06,45,0.00
2016,02,28,06,46,0.00
2016,02,28,06,47,0.00
2016,02,28,06,48,0.00
2016,02,28,06,49,0.00
2016,02,28,06,50,0.00
2016,02,28,06,51,0.00
2016,02,28,06,52,0.00
2016,02,28,06,53,0.00
2016,02,28,06,54,0.00
2016,02,28,06,55,0.00
2016,02,28,06,56,0.00
2016,02,28,06,57,0.00
2016,02,28,06,58,0.00
2016,02,28,06,59,0.00
2016,02,28,07,00,0.00
2016,02,28,07,01,0.00
2016,02,28,07,02,0.00
2016,02,28,07,03,0.00
2016,02,28,07,04,0.00
2016,02,28,07,05,0.00
2016,02,28,07,06,0.00
2016,02,28,07,07,0.00
2016,02,28,07,08,0.00
2016,02,28,07,09,0.00
2016,02,28,07,10,0.00
2016,02,28,07,11,0.00
2016,02,28,07,12,0.00
2016,02,28,07,13,0.00
2016,02,28,07,14,0.00
2016,02,28,07,15,0.00
2016,02,28,07,16,0.00
2016,02,28,07,17,0.00
2016,02,28,07,18,0.00
2016,02,28,07,19,0.00
2016,02,28,07,20,0.00
2016,02,28,07,21,0.00
2016,02,28,07,22,0.00
2016,02,28,07,23,0.00
2016,02,28,07,24,0.00
2016,02,28,07,25,0.00
2016,02,28,07,26,5.00
2016,02,28,07,27,5.50
2016,02,28,07,28,7.70
2016,02,28,07,29,8.10
2016,02,28,07,30,7.00
2016,02,28,07,31,7.00
2016,02,28,07,32,5.50
2016,02,28,07,33,5.00
2016,02,28,07,34,5.10
2016,02,28,07,35,7.00
2016,02,28,07,36,7.00
2016,02,28,07,37,7.00
2016,02,28,07,38,7.00
2016,02,28,07,39,7.00
2016,02,28,07,40,7.00
2016,02,28,07,41,7.00
2016,02,28,07,42,7.00
2016,02,28,07,43,9.00
2016,02,28,07,44,9.40
2016,02,28,07,45,11.00
2016,02,28,07,46,11.00
2016,02,28,07,47,11.50
2016,02,28,07,48,12.00
2016,02,28,07,49,12.00
2016,02,28,07,50,13.70
2016,02,28,07,51,14.00
2016,02,28,07,52,14.00
2016,02,28,07,53,14.00
2016,02,28,07,54,15.50
2016,02,28,07,55,19.40
2016,02,28,07,56,22.10
2016,02,28,07,57,24.30
2016,02,28,07,58,25.00
2016,02,28,07,59,25.90
2016,02,28,08,00,28.40
2016,02,28,08,01,32.50
2016,02,28,08,02,36.10
2016,02,28,08,03,39.00
2016,02,28,08,04,35.90
2016,02,28,08,05,31.10
2016,02,28,08,06,30.00
2016,02,28,08,07,32.50
2016,02,28,08,08,36.60
2016,02,28,08,09,42.70
2016,02,28,08,10,46.80
2016,02,28,08,11,44.70
2016,02,28,08,12,41.10
2016,02,28,08,13,39.50
2016,02,28,08,14,39.70
2016,02,28,08,15,43.00
2016,02,28,08,16,48.30
2016,02,28,08,17,51.10
2016,02,28,08,18,53.20
2016,02,28,08,19,54.60
2016,02,28,08,20,55.30
2016,02,28,08,21,52.60
2016,02,28,08,22,48.00
2016,02,28,08,23,43.30
2016,02,28,08,24,40.40
2016,02,28,08,25,40.00
2016,02,28,08,26,42.00
2016,02,28,08,27,42.50
2016,02,28,08,28,44.00
2016,02,28,08,29,44.00
2016,02,28,08,30,43.00
2016,02,28,08,31,42.00
2016,02,28,08,32,43.50
2016,02,28,08,33,44.00
2016,02,28,08,34,40.00
2016,02,28,08,35,36.70
2016,02,28,08,36,34.50
2016,02,28,08,37,32.00
2016,02,28,08,38,29.10
2016,02,28,08,39,28.00
2016,02,28,08,40,26.70
2016,02,28,08,41,26.00
2016,02,28,08,42,26.00
2016,02,28,08,43,27.90
2016,02,28,08,44,28.40
2016,02,28,08,45,30.90
2016,02,28,08,46,33.80
2016,02,28,08,47,36.00
2016,02,28,08,48,38.20
2016,02,28,08,49,44.10
2016,02,28,08,50,50.10
2016,02,28,08,51,59.20
2016,02,28,08,52,73.60
2016,02,28,08,53,87.20
2016,02,28,08,54,103.10
2016,02,28,08,55,121.70
2016,02,28,08,56,140.30
2016,02,28,08,57,151.20
2016,02,28,08,58,146.30
2016,02,28,08,59,141.40
2016,02,28,09,00,138.80
2016,02,28,09,01,130.10
2016,02,28,09,02,118.30
2016,02,28,09,03,105.90
2016,02,28,09,04,89.50
2016,02,28,09,05,69.80
2016,02,28,09,06,53.00
2016,02,28,09,07,45.00
2016,02,28,09,08,48.30
2016,02,28,09,09,59.30
2016,02,28,09,10,75.00
2016,02,28,09,11,89.80
2016,02,28,09,12,104.10
2016,02,28,09,13,117.00
2016,02,28,09,14,126.50
2016,02,28,09,15,148.20
2016,02,28,09,16,166.60
2016,02,28,09,17,189.00
2016,02,28,09,18,190.00
2016,02,28,09,19,190.80
2016,02,28,09,20,200.60
2016,02,28,09,21,188.20
2016,02,28,09,22,164.00
2016,02,28,09,23,167.00
2016,02,28,09,24,154.60
2016,02,28,09,25,131.00
2016,02,28,09,26,130.20
2016,02,28,09,27,129.70
2016,02,28,09,28,116.50
2016,02,28,09,29,106.20
2016,02,28,09,30,105.00
2016,02,28,09,31,104.40
2016,02,28,09,32,104.00
2016,02,28,09,33,110.00
2016,02,28,09,34,104.60
2016,02,28,09,35,85.70
2016,02,28,09,36,67.70
2016,02,28,09,37,60.00
2016,02,28,09,38,57.30
2016,02,28,09,39,48.50
2016,02,28,09,40,39.50
2016,02,28,09,41,39.20
2016,02,28,09,42,41.70
2016,02,28,09,43,46.00
2016,02,28,09,44,51.30
2016,02,28,09,45,64.70
2016,02,28,09,46,73.50
2016,02,28,09,47,75.00
2016,02,28,09,48,72.80
2016,02,28,09,49,69.90
2016,02,28,09,50,64.10
2016,02,28,09,51,60.30
2016,02,28,09,52,55.60
2016,02,28,09,53,53.00
2016,02,28,09,54,50.80
2016,02,28,09,55,46.00
2016,02,28,09,56,40.50
2016,02,28,09,57,33.80
2016,02,28,09,58,37.40
2016,02,28,09,59,39.80
2016,02,28,10,00,40.10
2016,02,28,10,01,42.00
2016,02,28,10,02,43.00
2016,02,28,10,03,46.40
2016,02,28,10,04,50.20
2016,02,28,10,05,54.00
2016,02,28,10,06,52.00
2016,02,28,10,07,45.50
2016,02,28,10,08,39.50
2016,02,28,10,09,40.10
2016,02,28,10,10,41.50
2016,02,28,10,11,39.00
2016,02,28,10,12,38.20
2016,02,28,10,13,38.00
2016,02,28,10,14,43.70
2016,02,28,10,15,53.30
2016,02,28,10,16,60.90
2016,02,28,10,17,60.20
2016,02,28,10,18,60.70
2016,02,28,10,19,66.10
2016,02,28,10,20,72.40
2016,02,28,10,21,83.70
2016,02,28,10,22,98.10
2016,02,28,10,23,101.30
2016,02,28,10,24,82.20
2016,02,28,10,25,62.30
2016,02,28,10,26,67.20
2016,02,28,10,27,81.50
2016,02,28,10,28,101.40
2016,02,28,10,29,110.40
2016,02,28,10,30,97.60
2016,02,28,10,31,91.70
2016,02,28,10,32,105.30
2016,02,28,10,33,106.40
2016,02,28,10,34,100.50
2016,02,28,10,35,79.90
2016,02,28,10,36,67.50
2016,02,28,10,37,63.60
2016,02,28,10,38,73.10
2016,02,28,10,39,83.70
2016,02,28,10,40,96.20
2016,02,28,10,41,130.40
2016,02,28,10,42,152.50
2016,02,28,10,43,191.00
2016,02,28,10,44,251.30
2016,02,28,10,45,300.40
2016,02,28,10,46,272.30
2016,02,28,10,47,243.00
2016,02,28,10,48,243.00
2016,02,28,10,49,192.10
2016,02,28,10,50,212.90
2016,02,28,10,51,227.00
2016,02,28,10,52,190.50
2016,02,28,10,53,242.90
2016,02,28,10,54,234.80
2016,02,28,10,55,243.10
2016,02,28,10,56,236.00
2016,02,28,10,57,236.00
2016,02,28,10,58,240.90
2016,02,28,10,59,243.00
2016,02,28,11,00,210.30
2016,02,28,11,01,211.40
2016,02,28,11,02,239.00
2016,02,28,11,03,243.80
2016,02,28,11,04,261.20
2016,02,28,11,05,276.10
2016,02,28,11,06,292.40
2016,02,28,11,07,225.10
2016,02,28,11,08,200.80
2016,02,28,11,09,249.70
2016,02,28,11,10,273.10
2016,02,28,11,11,275.00
2016,02,28,11,12,255.70
2016,02,28,11,13,234.20
2016,02,28,11,14,232.00
2016,02,28,11,15,232.00
2016,02,28,11,16,232.00
2016,02,28,11,17,232.00
2016,02,28,11,18,232.00
2016,02,28,11,19,232.00
2016,02,28,11,20,232.00
2016,02,28,11,21,231.20
2016,02,28,11,22,213.80
2016,02,28,11,23,199.00
2016,02,28,11,24,244.10
2016,02,28,11,25,240.10
2016,02,28,11,26,237.00
2016,02,28,11,27,237.00
2016,02,28,11,28,237.00
2016,02,28,11,29,252.30
2016,02,28,11,30,256.70
2016,02,28,11,31,220.00
2016,02,28,11,32,220.00
2016,02,28,11,33,284.90
2016,02,28,11,34,276.40
2016,02,28,11,35,327.80
2016,02,28,11,36,344.50
2016,02,28,11,37,392.00
2016,02,28,11,38,381.40
2016,02,28,11,39,330.00
2016,02,28,11,40,299.90
2016,02,28,11,41,334.60
2016,02,28,11,42,276.80
2016,02,28,11,43,260.00
2016,02,28,11,44,260.00
2016,02,28,11,45,260.00
2016,02,28,11,46,377.10
2016,02,28,11,47,629.30
2016,02,28,11,48,631.00
2016,02,28,11,49,631.00
2016,02,28,11,50,631.00
2016,02,28,11,51,631.00
2016,02,28,11,52,316.00
2016,02,28,11,53,301.00
2016,02,28,11,54,318.70
2016,02,28,11,55,371.90
2016,02,28,11,56,334.00
2016,02,28,11,57,265.10
2016,02,28,11,58,215.20
2016,02,28,11,59,193.50
2016,02,28,12,00,178.10
2016,02,28,12,01,171.50
2016,02,28,12,02,161.00
2016,02,28,12,03,129.10
2016,02,28,12,04,118.80
2016,02,28,12,05,122.60
2016,02,28,12,06,126.30
2016,02,28,12,07,127.70
2016,02,28,12,08,144.40
2016,02,28,12,09,157.30
2016,02,28,12,10,166.50
2016,02,28,12,11,198.10
2016,02,28,12,12,207.00
2016,02,28,12,13,190.30
2016,02,28,12,14,177.30
2016,02,28,12,15,201.00
2016,02,28,12,16,190.30
2016,02,28,12,17,146.70
2016,02,28,12,18,125.70
2016,02,28,12,19,126.60
2016,02,28,12,20,137.80
2016,02,28,12,21,139.80
2016,02,28,12,22,128.50
2016,02,28,12,23,122.90
2016,02,28,12,24,113.10
2016,02,28,12,25,112.60
2016,02,28,12,26,121.20
2016,02,28,12,27,144.70
2016,02,28,12,28,164.70
2016,02,28,12,29,179.60
2016,02,28,12,30,206.80
2016,02,28,12,31,246.10
2016,02,28,12,32,263.30
2016,02,28,12,33,330.50
2016,02,28,12,34,359.00
2016,02,28,12,35,359.00
2016,02,28,12,36,359.00
2016,02,28,12,37,359.00
2016,02,28,12,38,359.00
2016,02,28,12,39,359.00
2016,02,28,12,40,474.20
2016,02,28,12,41,554.00
2016,02,28,12,42,817.70
2016,02,28,12,43,891.00
2016,02,28,12,44,891.00
2016,02,28,12,45,748.00
2016,02,28,12,46,259.80
2016,02,28,12,47,251.30
2016,02,28,12,48,237.50
2016,02,28,12,49,215.00
2016,02,28,12,50,189.30
2016,02,28,12,51,160.70
2016,02,28,12,52,148.90
2016,02,28,12,53,138.00
2016,02,28,12,54,131.50
2016,02,28,12,55,135.80
2016,02,28,12,56,186.00
2016,02,28,12,57,234.00
2016,02,28,12,58,378.50
2016,02,28,12,59,431.30
2016,02,28,13,00,340.00
2016,02,28,13,01,397.00
2016,02,28,13,02,434.50
2016,02,28,13,03,584.70
2016,02,28,13,04,536.00
2016,02,28,13,05,496.50
2016,02,28,13,06,414.50
2016,02,28,13,07,392.70
2016,02,28,13,08,366.50
2016,02,28,13,09,346.40
2016,02,28,13,10,294.60
2016,02,28,13,11,234.70
2016,02,28,13,12,226.80
2016,02,28,13,13,187.80
2016,02,28,13,14,196.50
2016,02,28,13,15,184.40
2016,02,28,13,16,156.50
2016,02,28,13,17,148.40
2016,02,28,13,18,151.10
2016,02,28,13,19,157.20
2016,02,28,13,20,166.80
2016,02,28,13,21,174.50
2016,02,28,13,22,189.50
2016,02,28,13,23,212.20
2016,02,28,13,24,211.10
2016,02,28,13,25,184.30
2016,02,28,13,26,159.80
2016,02,28,13,27,154.10
2016,02,28,13,28,165.40
2016,02,28,13,29,170.50
2016,02,28,13,30,203.00
2016,02,28,13,31,239.00
2016,02,28,13,32,239.00
2016,02,28,13,33,254.50
2016,02,28,13,34,210.30
2016,02,28,13,35,154.40
2016,02,28,13,36,129.60
2016,02,28,13,37,150.30
2016,02,28,13,38,173.70
2016,02,28,13,39,212.30
2016,02,28,13,40,284.80
2016,02,28,13,41,387.80
2016,02,28,13,42,445.80
2016,02,28,13,43,454.00
2016,02,28,13,44,436.70
2016,02,28,13,45,254.90
2016,02,28,13,46,211.90
2016,02,28,13,47,209.50
2016,02,28,13,48,235.50
2016,02,28,13,49,286.40
2016,02,28,13,50,292.80
2016,02,28,13,51,242.00
2016,02,28,13,52,225.60
2016,02,28,13,53,233.20
2016,02,28,13,54,306.50
2016,02,28,13,55,346.30
2016,02,28,13,56,382.90
2016,02,28,13,57,396.60
2016,02,28,13,58,410.20
2016,02,28,13,59,353.50
2016,02,28,14,00,316.40
2016,02,28,14,01,306.00
2016,02,28,14,02,291.90
2016,02,28,14,03,256.10
2016,02,28,14,04,251.00
2016,02,28,14,05,251.00
2016,02,28,14,06,430.20
2016,02,28,14,07,568.00
2016,02,28,14,08,350.90
2016,02,28,14,09,287.00
2016,02,28,14,10,287.00
2016,02,28,14,11,287.00
2016,02,28,14,12,287.00
2016,02,28,14,13,246.50
2016,02,28,14,14,188.00
2016,02,28,14,15,198.20
2016,02,28,14,16,219.30
2016,02,28,14,17,246.50
2016,02,28,14,18,227.50
2016,02,28,14,19,250.70
2016,02,28,14,20,223.70
2016,02,28,14,21,205.20
2016,02,28,14,22,196.50
2016,02,28,14,23,179.60
2016,02,28,14,24,159.30
2016,02,28,14,25,149.10
2016,02,28,14,26,140.20
2016,02,28,14,27,131.50
2016,02,28,14,28,123.40
2016,02,28,14,29,123.60
2016,02,28,14,30,123.30
2016,02,28,14,31,128.00
2016,02,28,14,32,139.00
2016,02,28,14,33,157.60
2016,02,28,14,34,194.70
2016,02,28,14,35,246.60
2016,02,28,14,36,248.90
2016,02,28,14,37,257.70
2016,02,28,14,38,266.70
2016,02,28,14,39,313.30
2016,02,28,14,40,360.00
2016,02,28,14,41,351.10
2016,02,28,14,42,355.60
2016,02,28,14,43,417.30
2016,02,28,14,44,427.00
2016,02,28,14,45,411.50
2016,02,28,14,46,334.50
2016,02,28,14,47,309.30
2016,02,28,14,48,267.50
2016,02,28,14,49,238.20
2016,02,28,14,50,227.90
2016,02,28,14,51,218.00
2016,02,28,14,52,216.00
2016,02,28,14,53,263.60
2016,02,28,14,54,327.00
2016,02,28,14,55,352.00
2016,02,28,14,56,352.00
2016,02,28,14,57,340.00
2016,02,28,14,58,357.60
2016,02,28,14,59,387.10
2016,02,28,15,00,359.00
2016,02,28,15,01,352.00
2016,02,28,15,02,344.10
2016,02,28,15,03,318.30
2016,02,28,15,04,387.00
2016,02,28,15,05,325.10
2016,02,28,15,06,250.80
2016,02,28,15,07,247.40
2016,02,28,15,08,261.10
2016,02,28,15,09,250.30
2016,02,28,15,10,244.30
2016,02,28,15,11,255.30
2016,02,28,15,12,281.00
2016,02,28,15,13,319.20
2016,02,28,15,14,264.50
2016,02,28,15,15,243.80
2016,02,28,15,16,234.60
2016,02,28,15,17,239.70
2016,02,28,15,18,220.10
2016,02,28,15,19,199.60
2016,02,28,15,20,197.70
2016,02,28,15,21,193.30
2016,02,28,15,22,178.60
2016,02,28,15,23,178.50
2016,02,28,15,24,181.50
2016,02,28,15,25,185.20
2016,02,28,15,26,186.00
2016,02,28,15,27,191.60
2016,02,28,15,28,191.60
2016,02,28,15,29,205.00
2016,02,28,15,30,215.90
2016,02,28,15,31,198.90
2016,02,28,15,32,187.00
2016,02,28,15,33,180.10
2016,02,28,15,34,173.10
2016,02,28,15,35,173.80
2016,02,28,15,36,185.70
2016,02,28,15,37,188.00
2016,02,28,15,38,178.10
2016,02,28,15,39,167.90
2016,02,28,15,40,158.50
2016,02,28,15,41,151.30
2016,02,28,15,42,146.80
2016,02,28,15,43,150.10
2016,02,28,15,44,161.20
2016,02,28,15,45,165.50
2016,02,28,15,46,169.80
2016,02,28,15,47,180.40
2016,02,28,15,48,195.00
2016,02,28,15,49,195.00
2016,02,28,15,50,215.50
2016,02,28,15,51,275.20
2016,02,28,15,52,290.00
2016,02,28,15,53,420.00
2016,02,28,15,54,387.80
2016,02,28,15,55,249.50
2016,02,28,15,56,267.00
2016,02,28,15,57,349.50
2016,02,28,15,58,430.20
2016,02,28,15,59,426.20
2016,02,28,16,00,424.20
2016,02,28,16,01,414.00
2016,02,28,16,02,400.30
2016,02,28,16,03,395.10
2016,02,28,16,04,373.50
2016,02,28,16,05,344.90
2016,02,28,16,06,337.70
2016,02,28,16,07,320.00
2016,02,28,16,08,246.60
2016,02,28,16,09,225.00
2016,02,28,16,10,307.00
2016,02,28,16,11,369.00
2016,02,28,16,12,369.00
2016,02,28,16,13,334.50
2016,02,28,16,14,309.50
2016,02,28,16,15,335.00
2016,02,28,16,16,324.00
2016,02,28,16,17,325.00
2016,02,28,16,18,164.10
2016,02,28,16,19,134.40
2016,02,28,16,20,127.30
2016,02,28,16,21,124.40
2016,02,28,16,22,123.90
2016,02,28,16,23,122.30
2016,02,28,16,24,120.60
2016,02,28,16,25,129.00
2016,02,28,16,26,147.50
2016,02,28,16,27,167.40
2016,02,28,16,28,172.80
2016,02,28,16,29,162.30
2016,02,28,16,30,148.10
2016,02,28,16,31,137.20
2016,02,28,16,32,135.00
2016,02,28,16,33,129.50
2016,02,28,16,34,123.90
2016,02,28,16,35,124.70
2016,02,28,16,36,138.90
2016,02,28,16,37,176.60
2016,02,28,16,38,236.90
2016,02,28,16,39,249.30
2016,02,28,16,40,225.00
2016,02,28,16,41,170.70
2016,02,28,16,42,143.10
2016,02,28,16,43,147.50
2016,02,28,16,44,108.10
2016,02,28,16,45,99.70
2016,02,28,16,46,97.30
2016,02,28,16,47,93.40
2016,02,28,16,48,88.30
2016,02,28,16,49,84.40
2016,02,28,16,50,81.70
2016,02,28,16,51,78.00
2016,02,28,16,52,77.00
2016,02,28,16,53,84.00
2016,02,28,16,54,88.40
2016,02,28,16,55,89.50
2016,02,28,16,56,86.50
2016,02,28,16,57,80.70
2016,02,28,16,58,80.50
2016,02,28,16,59,81.60
2016,02,28,17,00,81.00
2016,02,28,17,01,79.30
2016,02,28,17,02,83.30
2016,02,28,17,03,86.40
2016,02,28,17,04,88.60
2016,02,28,17,05,89.20
2016,02,28,17,06,89.00
2016,02,28,17,07,90.00
2016,02,28,17,08,85.60
2016,02,28,17,09,77.40
2016,02,28,17,10,70.10
2016,02,28,17,11,66.50
2016,02,28,17,12,64.60
2016,02,28,17,13,73.00
2016,02,28,17,14,87.10
2016,02,28,17,15,100.50
2016,02,28,17,16,110.90
2016,02,28,17,17,111.70
2016,02,28,17,18,105.00
2016,02,28,17,19,104.90
2016,02,28,17,20,102.70
2016,02,28,17,21,95.10